Location: Cran-Gévrier
(45.9039°N, 6.1012°E)
Time: 10:22:58
(UTC+00:00)

COSMOS 2428 - Pass Details

Date: 09 February 2023
Orbit: 843 x 858 km, 70.9° (Epoch: 21 March)

Event Time Altitude Azimuth Distance (km) Brightness Sun altitude
Rises 17:12:07 0° 170° (S) 3,388 5.9 -4.1°
Reaches altitude 10° 17:14:53 10° 158° (SSE) 2,457 5.1 -4.5°
Maximum altitude 17:19:30 27° 103° (ESE) 1,584 3.7 -5.3°
Drops below altitude 10° 17:24:08 10° 48° (NE) 2,471 4.6 -6.1°
Sets 17:26:55 0° 36° (NE) 3,411 5.4 -6.5°
